Regional Weather Roundup
Issued by NWS

Home | Current Version | Previous Version | Graphics & Text | Print | Product List | Glossary On
Versions: 1 2 3 4 5 6 7 8 9 10 11 12 13 14 15 16 17 18 19 20 21 22 23 24 25 26 27 28 29 30 31 32 33 34 35 36 37 38 39 40 41 42 43 44 45 46 47 48 49 50
000
ASUS45 KCYS 211210
RWRWY

WYOMING REGIONAL WEATHER ROUNDUP
NATIONAL WEATHER SERVICE CHEYENNE WY
600 AM MDT SUN SEP 21 2014

NOTE:  "FAIR" INDICATES FEW OR NO CLOUDS BELOW 12,000 FEET
WITH NO SIGNIFICANT WEATHER AND/OR OBSTRUCTIONS TO VISIBILITY.

WYZ001-211300-
YELLOWSTONE NATIONAL PARK

CITY           SKY/WX    TMP DP  RH WIND       PRES   REMARKS
LK YELLOWSTONE   N/A     34  32  92 NW3       30.42F
6HR MIN TEMP:  33; 6HR MAX TEMP:  38;

W YELLOWSTONE  NOT AVBL

$$
WYZ002>013-054>058-071-098>099-211300-
NORTHERN WYOMING

CITY           SKY/WX    TMP DP  RH WIND       PRES   REMARKS
JACKSON        PTCLDY    46  39  76 CALM      30.34S
CODY             N/A    N/A N/A N/A MISG        N/A
GREYBULL       CLEAR     46  40  79 CALM      30.28S
6HR MIN TEMP:  45; 6HR MAX TEMP:  54;

WORLAND        CLEAR     44  40  85 CALM      30.29S
6HR MIN TEMP:  44; 6HR MAX TEMP:  56;

SHERIDAN       CLEAR     40  36  86 CALM      30.30S
6HR MIN TEMP:  39; 6HR MAX TEMP:  48;

BUFFALO        CLEAR     46  37  71 SE5       30.34S
6HR MIN TEMP:  46; 6HR MAX TEMP:  52;

GILLETTE       CLEAR     38  35  89 S3        30.34S
6HR MIN TEMP:  38; 6HR MAX TEMP:  45;

HULETT         FAIR      41  34  75 MISG      30.36
NEWCASTLE      FAIR      43  34  70 N5        30.36

$$
WYZ014>020-022>026-101>103-211300-
CENTRAL WYOMING

CITY           SKY/WX    TMP DP  RH WIND       PRES   REMARKS
BIG PINEY      PTCLDY    40  32  73 E6        30.37S
6HR MIN TEMP:  40; 6HR MAX TEMP:  51;

PINEDALE       SUNNY     37  36  93 NW7       30.38F WCI  32
DUBOIS         FAIR      37  34  87 NW6       30.43S WCI  33
LANDER         PTCLDY    50  38  63 W7        30.35S
6HR MIN TEMP:  49; 6HR MAX TEMP:  55;

RIVERTON       PTCLDY    46  34  62 N7        30.35S
6HR MIN TEMP:  46; 6HR MAX TEMP:  59;

CASPER         CLEAR     40  31  70 NW8       30.36S WCI  34
6HR MIN TEMP:  39; 6HR MAX TEMP:  53;

DOUGLAS        CLEAR     47  37  68 SE6       30.36F
6HR MIN TEMP:  45; 6HR MAX TEMP:  50;


$$
WYZ021-027>030-104>119-211300-
SOUTHERN WYOMING

CITY           SKY/WX    TMP DP  RH WIND       PRES   REMARKS
EVANSTON       MOCLDY    55  38  52 NE10      30.29F
6HR MIN TEMP:  52; 6HR MAX TEMP:  60;

KEMMERER       SUNNY    N/A N/A N/A N10       30.35S
FORT BRIDGER   FAIR      47  39  75 NE9       30.35S
ROCK SPRINGS   PTCLDY    49  36  61 E16       30.34S
6HR MIN TEMP:  49; 6HR MAX TEMP:  56;

DIXON          FAIR      44  39  82 W3        30.32R
RAWLINS        CLEAR     49  35  58 NE15      30.35F
6HR MIN TEMP:  49; 6HR MAX TEMP:  56;

SARATOGA       FAIR      43  41  93 CALM      30.36S
LARAMIE        CLEAR     46  36  68 S9        30.41S
6HR MIN TEMP:  43; 6HR MAX TEMP:  53;

CHEYENNE       CLOUDY    54  38  54 S6        30.40S
6HR MIN TEMP:  53; 6HR MAX TEMP:  57;

TORRINGTON     MOCLDY    51  43  74 CALM      30.35S
6HR MIN TEMP:  50; 6HR MAX TEMP:  57;

PINE BLUFFS    FAIR      48  41  76 CALM      30.39R

$$


USA.gov is the U.S. government's official web portal to all federal, state and local government web resources and services.